Location: Finney State Fishing Lake and Wildlife Area
(38.1834°N, 100.3310°W)
Time: 13:38:05
(UTC+00:00)

Cosmos 2366 rocket - Pass Details

Date: 17 October 2021
Orbit: 956 x 996 km, 82.9° (Epoch: 04 December)

Event Time Altitude Azimuth Distance (km) Brightness Sun altitude
Rises 12:15:01 0° 344° (NNW) 3,707 6.8 -8.1°
Reaches altitude 10° 12:17:42 10° 337° (NNW) 2,759 6.1 -7.6°
Maximum altitude 12:23:27 38° 271° (W) 1,470 4.5 -6.4°
Drops below altitude 10° 12:29:13 10° 206° (SSW) 2,754 6.2 -5.3°
Sets 12:31:54 0° 198° (SSW) 3,699 6.9 -4.8°
